Flag for Fiji Weather past 2 weeks in Lautoka, Fiji

Now
88 °F

Scattered clouds.


Feels Like: 98 °F
Forecast: 77 / 87 °F
Wind: 12 mph from Northwest

Location: Nandi

Current Time: Mar 31, 2015 at 2:32:29 PM

Latest Report: Mar 31, 2015 at 2:00 PM


Visibility: N/A

Pressure: 29.83 "Hg

Humidity: 66%

Dew point: 75 °F

Location of LautokaLocation

Historic Weather in Lautoka — Graph

°F

Lautoka temperature yesterday

Maximum temperature yesterday: 86 °F (at 11:00 AM)
Minimum temperature yesterday: 72 °F (at 4:00 AM)
Average temperature yesterday: 78 °F

Past Weeks' High & Low Weather Summary

 TemperatureHumidityPressure
High90 °F (Mar 16, 2:00 PM)100% (Mar 16, 8:00 PM)29.95 "Hg (Mar 16, 8:00 PM)
Low68 °F (Mar 25, 3:00 AM)49% (Mar 29, 12:00 PM)29.62 "Hg (Mar 21, 3:00 PM)
Average79 °F80%29.81 "Hg
* Reported Mar 16 1:00 PM — Mar 31 1:00 PM, Lautoka, Weather by CustomWeather, © 2015

Note: Actual official high and low records may vary slightly from our data, if they occured in-between our weather recording intervals... More about our weather records

Advertising

Lautoka weather history for previous 24 hours

 ConditionsComfort  
Time TempWeatherWind HumidityBarometerVisibility
1:00 PM
Tue, Mar 31
90 °FScattered clouds.7 mph49%29.83 "HgN/A
12:00 PM90 °FPassing clouds.10 mph49%29.86 "HgN/A
11:00 AM88 °FPassing clouds.7 mph49%29.89 "HgN/A
10:00 AM86 °FPassing clouds.5 mph62%29.92 "HgN/A
9:00 AM82 °FPassing clouds.5 mph66%29.92 "HgN/A
8:00 AM77 °FPassing clouds.5 mph79%29.92 "HgN/A
7:00 AM72 °FScattered clouds.7 mph88%29.92 "HgN/A
6:00 AM70 °FPassing clouds.3 mph94%29.89 "HgN/A
5:00 AM72 °FPassing clouds.5 mph88%29.89 "HgN/A
4:00 AM72 °FPassing clouds.6 mph88%29.86 "HgN/A
3:00 AM72 °FPassing clouds.3 mph88%29.89 "HgN/A
2:00 AM72 °FPassing clouds.2 mph88%29.89 "HgN/A
1:00 AM73 °FPassing clouds.7 mph83%29.92 "HgN/A
12:00 AM73 °FPassing clouds.5 mph89%29.92 "HgN/A
11:00 PM
Mon, Mar 30
73 °FPassing clouds.3 mph94%29.95 "HgN/A
10:00 PM75 °FPassing clouds.5 mph89%29.95 "HgN/A
9:00 PM75 °FPassing clouds.5 mph89%29.92 "HgN/A
8:00 PM77 °FPassing clouds.3 mph83%29.92 "HgN/A
7:00 PM79 °FPassing clouds.5 mph74%29.89 "HgN/A
6:00 PM81 °FPassing clouds.5 mph66%29.86 "HgN/A
5:00 PM84 °FPassing clouds.10 mph66%29.83 "HgN/A
4:00 PM84 °FPassing clouds.13 mph62%29.83 "HgN/A
3:00 PM84 °FPassing clouds.14 mph62%29.83 "HgN/A
2:00 PM84 °FPassing clouds.13 mph62%29.83 "HgN/A
Weather by CustomWeather, © 2015

See weather overviewHow to use our weather pages